Weather History for MROC - January, 2013

Change the Weather History Date:

Sunday, January 6, 2013

  Actual Average Record
Temperature  
Mean Temperature 76 °F -  
Max Temperature 84 °F 80 °F 86 °F (1998)
Min Temperature 68 °F 63 °F 59 °F (1997)
Cooling Degree Days 11    
Growing Degree Days 26 (Base 50)    
Moisture  
Dew Point 55 °F    
Average Humidity 48    
Maximum Humidity 64    
Minimum Humidity 26    
Precipitation  
Precipitation 0.00 in 0.01 in - ()
Sea Level Pressure  
Sea Level Pressure 29.93 in    
Wind  
Wind Speed 12 mph ()    
Max Wind Speed 18 mph    
Max Gust Speed 31 mph    
Visibility 8.9 miles    
Events      
Averages and records for this station are not official NWS values.
T = Trace of Precipitation, MM = Missing Value Source: Averaged Metar Reports

Daily Weather History Graph

Daily Weather History Graph

Search for Another Location

Airport or City:

Trip Planner

Search our weather history database for the weather conditions in past years. The results will help you decide how hot, cold, wet, or windy it might be!

Date:

Astronomy

Jan. 06, 2013 Rise Set
Actual Time 5:55 AM CST 5:30 PM CST
Civil Twilight 5:33 AM CST 5:52 PM CST
Nautical Twilight 5:06 AM CST 6:18 PM CST
Astronomical Twilight 4:40 AM CST 6:44 PM CST
Moon 12:33 AM CST (1/6) 12:37 PM CST (1/6)
Length of Visible Light 12h 19m
Length of Day
11h 34m
Waning Crescent, 33% of the Moon is Illuminated
Jan 6
Waning Crescent
Jan 11
New
Jan 18
First Quarter
Jan 26
Full
Feb 3
Last Quarter

Hourly Weather History & Observations

Time (CST) Temp. Heat Index Dew Point Humidity Pressure Visibility Wind Dir Wind Speed Gust Speed Precip Events Conditions
12:00 AM 70 °F - 56 °F 53% 29.80 in 12 mi ESE 12.7 mph - -   Clear
12:00 AM 69.8 °F - 57.2 °F 64% 29.97 in - ESE 12.7 mph - N/A   Clear
1:00 AM 69.8 °F - 55.4 °F 60% 29.97 in - East 11.5 mph - N/A   Clear
2:00 AM 69.8 °F - 55.4 °F 60% 29.94 in - ESE 13.8 mph - N/A   Clear
3:00 AM 69 °F - 54 °F 50% 29.78 in 12 mi East 12.7 mph - -   Clear
3:00 AM 71.6 °F - 51.8 °F 50% 29.94 in - East 11.5 mph 23.0 mph N/A   Clear
4:00 AM 69.8 °F - 53.6 °F 56% 29.94 in - ESE 12.7 mph 24.2 mph N/A   Clear
5:00 AM 69.8 °F - 53.6 °F 56% 29.95 in - East 13.8 mph - N/A   Clear
6:00 AM 71.6 °F - 48.2 °F 43% 29.96 in - East 11.5 mph 23.0 mph N/A   Clear
7:00 AM 71.6 °F - 53.6 °F 53% 29.98 in - East 12.7 mph 24.2 mph N/A   Clear
8:00 AM 75.2 °F - 55.4 °F 50% 30.00 in - ESE 12.7 mph 24.2 mph N/A   Clear
9:00 AM 76 °F - 56 °F 39% 29.85 in 12 mi ESE 18.4 mph - -  
9:00 AM 75.2 °F - 55.4 °F 50% 30.01 in - ESE 18.4 mph 29.9 mph N/A   Clear
10:00 AM 78.8 °F - 53.6 °F 42% 30.00 in - East 17.3 mph 28.8 mph N/A   Clear
11:00 AM 80.6 °F 80.5 °F 55.4 °F 42% 30.00 in - East 15.0 mph 26.5 mph N/A   Clear
12:00 PM 83 °F - 54 °F 26% 29.79 in 12 mi East 13.8 mph - -  
12:00 PM 82.4 °F 81.4 °F 53.6 °F 37% 29.97 in - East 13.8 mph 25.3 mph N/A   Clear
1:00 PM 82.4 °F 81.7 °F 55.4 °F 39% 29.95 in 6.2 mi East 15.0 mph 26.5 mph N/A   Partly Cloudy
2:00 PM 82.4 °F 81.7 °F 55.4 °F 39% 29.92 in 6.2 mi East 15.0 mph 31.1 mph N/A   Partly Cloudy
3:00 PM 83 °F - 54 °F 26% 29.75 in 12 mi East 11.5 mph - -   Scattered Clouds
3:00 PM 82.4 °F 81.4 °F 53.6 °F 37% 29.91 in 6.2 mi East 11.5 mph 23.0 mph N/A   Partly Cloudy
4:00 PM 82.4 °F 81.4 °F 53.6 °F 37% 29.91 in 6.2 mi East 17.3 mph - N/A   Partly Cloudy
5:00 PM 78.8 °F - 55.4 °F 44% 29.92 in 6.2 mi East 15.0 mph - N/A   Partly Cloudy
6:00 PM 74 °F - 55 °F 41% 29.77 in 12 mi ENE 17.3 mph - -   Scattered Clouds
6:00 PM 75.2 °F - 55.4 °F 50% 29.94 in 6.2 mi ENE 17.3 mph - N/A   Partly Cloudy
7:00 PM 73.4 °F - 57.2 °F 57% 29.96 in 6.2 mi East 15.0 mph - N/A   Partly Cloudy
8:00 PM 71.6 °F - 57.2 °F 60% 29.98 in 6.2 mi East 17.3 mph - N/A   Partly Cloudy
9:00 PM 71 °F - 56 °F 48% 29.85 in 12 mi ENE 11.5 mph - -  
9:00 PM 71.6 °F - 55.4 °F 57% 30.00 in - ENE 11.5 mph 23.0 mph N/A   Clear
10:00 PM 69.8 °F - 57.2 °F 64% 30.00 in - East 11.5 mph 23.0 mph N/A   Clear
11:00 PM 69.8 °F - 57.2 °F 64% 29.99 in - East 12.7 mph 24.2 mph N/A   Clear